Miscellaneous Local Product
Issued by NWS North Platte, NE

Home | Current Version | Previous Version | Text Only | Print | Product List | Glossary On
Versions: 1 2 3 4 5 6 7 8 9 10 11 12 13 14 15 16 17 18 19 20 21 22 23 24 25 26 27 28 29 30 31 32 33 34 35 36 37 38 39 40 41 42 43 44 45 46 47 48 49 50
000
AXUS43 KLBF 291310
MISLBF


WESTERN AND NORTH CENTRAL NEBRASKA HOURLY WEATHER ROUNDUP
NATIONAL WEATHER SERVICE NORTH PLATTE NE
800 AM CDT WED JUL 29 2015

***STATIONS NOT REPORTING VARIABLES SUCH AS SKY/WEATHER OR
PRESSURE ARE PROVIDED BY THE NEBRASKA DEPARTMENT OF
ROADS...RAWS...AND APRS NETWORKS...AND ARE NOT UNDER
NATIONAL WEATHER SERVICE QUALITY CONTROL***

...OBSERVATIONS IN AND NEAR THE EASTERN PANHANDLE OF NEBRASKA...

CITY           SKY/WX    TMP DP  RH WIND       PRES   REMARKS
PINE RIDGE     SUNNY     49  44  83 CALM      30.29R
CHADRON        SUNNY     49  43  80 W5        30.30R
ALLIANCE       SUNNY     47  43  86 MISG      30.32R
SIDNEY         MOSUNNY   56  45  66 SE6       30.34R
BIG SPRINGS      N/A     57  53  88 CALM        N/A
$$

...OBSERVATIONS IN NORTH CENTRAL NEBRASKA...

CITY           SKY/WX    TMP DP  RH WIND       PRES   REMARKS
VALENTINE      SUNNY     54  47  77 SW7       30.24R
THEDFORD       MOSUNNY   54  51  90 CALM      30.29R
AINSWORTH      SUNNY     60  50  70 S8        30.24R
O`NEILL        SUNNY     58  54  85 SW5       30.22R
ORD            SUNNY     57  53  86 NW3       30.23R
BROKEN BOW     SUNNY     59  53  80 CALM      30.26R
SPRINGVIEW       N/A     54  49  85 CALM        N/A
CHAMBERS         N/A     66  56  70 S3          N/A
EWING            N/A     60  58  92 CALM        N/A
$$

...OBSERVATIONS IN SOUTHWEST NEBRASKA AND FAR NORTHEAST COLORADO...

CITY           SKY/WX    TMP DP  RH WIND       PRES   REMARKS
WRAY           FAIR      57  53  88 CALM      30.30S
HOLYOKE        FAIR      55  48  76 CALM      30.31R
IMPERIAL       MOSUNNY   58  50  75 CALM      30.30R
OGALLALA       PTSUNNY   60  49  67 E6        30.30S
NORTH PLATTE   CLOUDY    59  52  77 CALM      30.30R
MCCOOK         MOSUNNY   56  53  90 CALM      30.28R
LEXINGTON      MOSUNNY   58  55  90 W5        30.28R
PAXTON           N/A     57  54  90 CALM        N/A
BRADY            N/A     57  53  85 CALM        N/A
CALLAWAY         N/A     59  58  96 CALM        N/A
$$

...NORTH PLATTE AREA...

CITY           SKY/WX    TMP DP  RH WIND       PRES   REMARKS
AIRPORT        CLOUDY    59  52  77 CALM      30.30R
DOWNTOWN         N/A     63  51  66 CALM        N/A
SANDRIDGE        N/A     61  51  69 CALM        N/A
HILLCREST        N/A     61  51  70 CALM        N/A
$$

...SOME WEATHER OBSERVATIONS FROM AROUND THE REGION...

CITY           SKY/WX    TMP DP  RH WIND       PRES   REMARKS
DENVER         PTSUNNY   61  44  53 S3        30.32R
LARAMIE        SUNNY     47  34  60 S7        30.40R
CHEYENNE       SUNNY     50  36  58 NW5       30.38R
SCOTTSBLUFF    PTSUNNY   52  47  83 CALM      30.33R
RAPID CITY     SUNNY     60  43  53 W10       30.24S
PIERRE         SUNNY     64  44  48 W14       30.11R
WINNER         FAIR      64  45  49 SW8       30.18R
SIOUX FALLS    SUNNY     64  52  64 VRB7      30.11R
OMAHA          PTSUNNY   66  64  93 N3        30.16R
GRAND ISLAND   MOSUNNY   62  56  80 W5        30.24R
KANSAS CITY    LGT RAIN  71  70  96 NW6       30.12S
WICHITA        PTSUNNY   77  68  73 E20       30.09R
HAYS           CLOUDY    66  55  68 SE3       30.26S
LIBERAL        CLOUDY    64  54  68 NE17      30.17R
GOODLAND       MOSUNNY   62  54  74 E5        30.28S
$$



USA.gov is the U.S. government's official web portal to all federal, state and local government web resources and services.